Weather History for Medan, Indonesia

Change the Weather History Date:

Tuesday, January 21, 2014

  Actual Average Record
Temperature  
Mean Temperature 78 °F -  
Max Temperature 85 °F - - ()
Min Temperature 72 °F - - ()
Cooling Degree Days 14    
Growing Degree Days 28 (Base 50)    
Moisture  
Dew Point 71 °F    
Average Humidity 79    
Maximum Humidity 89    
Minimum Humidity 65    
Precipitation  
Precipitation 0.00 in - - ()
Sea Level Pressure  
Sea Level Pressure 29.92 in    
Wind  
Wind Speed 5 mph ()    
Max Wind Speed 16 mph    
Max Gust Speed -    
Visibility 3.3 miles    
Events      
T = Trace of Precipitation, MM = Missing Value Source: Averaged Metar Reports

Daily Weather History Graph

Daily Weather History Graph

Search for Another Location

Airport:

Trip Planner

Search our weather history database for the weather conditions in past years. The results will help you decide how hot, cold, wet, or windy it might be!

Date:

Astronomy

Jan. 21, 2014 Rise Set
Actual Time 6:38 AM WIT 6:35 PM WIT
Civil Twilight 6:16 AM WIT 6:57 PM WIT
Nautical Twilight 5:50 AM WIT 7:22 PM WIT
Astronomical Twilight 5:24 AM WIT 7:48 PM WIT
Moon 10:23 PM WIT (1/21) 9:59 AM WIT (1/21)
Length of Visible Light 12h 40m
Length of Day
11h 56m
Waning Gibbous, 79% of the Moon is Illuminated
Jan 21
Waning Gibbous
Jan 24
Last Quarter
Jan 31
New
Feb 7
First Quarter
Feb 15
Full

Hourly Weather History & Observations

Time (WIT) Temp. Heat Index Dew Point Humidity Pressure Visibility Wind Dir Wind Speed Gust Speed Precip Events Conditions
1:00 AM 74 °F - 71 °F 89% 29.95 in 3 mi Calm Calm - -   Haze
1:00 AM 75.2 °F - 71.6 °F 89% 29.95 in 3.1 mi WSW 4.6 mph - N/A   Haze
2:00 AM 75.2 °F - 71.6 °F 89% 29.95 in 3.1 mi Calm Calm - N/A   Haze
3:00 AM 73.4 °F - 69.8 °F 88% 29.92 in 3.1 mi West 4.6 mph - N/A   Haze
3:30 AM 73.4 °F - 69.8 °F 88% 29.89 in 3.1 mi WSW 4.6 mph - N/A   Haze
4:00 AM 73 °F - 70 °F 87% 29.90 in 3 mi Calm Calm - -   Haze
4:00 AM 73.4 °F - 69.8 °F 88% 29.89 in 3.7 mi WSW 4.6 mph - N/A   Haze
4:30 AM 73.4 °F - 69.8 °F 88% 29.89 in 3.1 mi West 4.6 mph - N/A   Haze
5:00 AM 73.4 °F - 69.8 °F 88% 29.89 in 3.1 mi West 3.5 mph - N/A   Haze
5:30 AM 73.4 °F - 69.8 °F 88% 29.89 in 3.7 mi West 3.5 mph - N/A   Haze
6:00 AM 73.4 °F - 69.8 °F 88% 29.89 in 3.1 mi WSW 3.5 mph - N/A   Haze
6:30 AM 73.4 °F - 69.8 °F 88% 29.89 in 3.1 mi WSW 5.8 mph - N/A   Haze
7:00 AM 73 °F - 69 °F 85% 29.93 in 2 mi Calm Calm - -   Haze
7:30 AM 73.4 °F - 69.8 °F 88% 29.95 in 1.9 mi SW 3.5 mph - N/A   Haze
8:00 AM 75.2 °F - 71.6 °F 89% 29.95 in 1.9 mi West 4.6 mph - N/A   Haze
8:30 AM 77.0 °F - 71.6 °F 83% 29.95 in 3.1 mi West 4.6 mph - N/A   Scattered Clouds
9:00 AM 77.0 °F - 71.6 °F 83% 29.95 in 3.1 mi West 6.9 mph - N/A   Scattered Clouds
9:30 AM 78.8 °F - 71.6 °F 78% 29.98 in 3.7 mi West 5.8 mph - N/A   Scattered Clouds
10:00 AM 79 °F - 71 °F 69% 29.98 in 4 mi North 5.8 mph - -   Partly Cloudy
10:00 AM 78.8 °F - 69.8 °F 74% 29.98 in 3.7 mi North 5.8 mph - N/A   Scattered Clouds
11:00 AM 82.4 °F 88.2 °F 73.4 °F 74% 29.95 in 4.3 mi NNE 5.8 mph - N/A   Scattered Clouds
11:30 AM 80.6 °F 84.6 °F 71.6 °F 74% 29.95 in 4.3 mi North 6.9 mph - N/A   Mostly Cloudy
12:00 PM 80.6 °F 85.4 °F 73.4 °F 79% 29.95 in 3.7 mi NNW 5.8 mph - N/A   Scattered Clouds
12:30 PM 84.2 °F 89.6 °F 71.6 °F 66% 29.95 in 3.7 mi NNW 8.1 mph - N/A   Scattered Clouds
1:00 PM 84 °F - 74 °F 65% 29.94 in 4 mi NNE 13.8 mph - -   Partly Cloudy
1:00 PM 84.2 °F 90.9 °F 73.4 °F 70% 29.92 in 3.7 mi NNE 13.8 mph - N/A   Scattered Clouds
1:30 PM 82.4 °F 87.2 °F 71.6 °F 70% 29.92 in 3.7 mi North 10.4 mph - N/A   Scattered Clouds
2:00 PM 82.4 °F 87.2 °F 71.6 °F 70% 29.89 in 3.7 mi North 11.5 mph - N/A   Scattered Clouds
2:30 PM 84.2 °F 89.6 °F 71.6 °F 66% 29.89 in 3.7 mi North 13.8 mph - N/A   Scattered Clouds
3:00 PM 82.4 °F 88.2 °F 73.4 °F 74% 29.86 in 3.7 mi North 16.1 mph - N/A   Scattered Clouds
3:30 PM 82.4 °F 88.2 °F 73.4 °F 74% 29.86 in 3.7 mi NNE 16.1 mph - N/A   Scattered Clouds
4:00 PM 82 °F - 72 °F 66% 29.88 in 4 mi North 11.5 mph - -   Partly Cloudy
4:00 PM 82.4 °F 87.2 °F 71.6 °F 70% 29.86 in 3.7 mi North 11.5 mph - N/A   Scattered Clouds
4:30 PM 82.4 °F 87.2 °F 71.6 °F 70% 29.86 in 3.7 mi North 10.4 mph - N/A   Scattered Clouds
5:00 PM 82.4 °F 87.2 °F 71.6 °F 70% 29.89 in 3.7 mi North 9.2 mph - N/A   Scattered Clouds
5:30 PM 80.6 °F 84.6 °F 71.6 °F 74% 29.89 in 3.7 mi North 10.4 mph - N/A   Scattered Clouds
6:00 PM 80.6 °F 84.6 °F 71.6 °F 74% 29.89 in 3.7 mi North 9.2 mph - N/A   Scattered Clouds
6:30 PM 78.8 °F - 71.6 °F 78% 29.89 in 3.1 mi North 8.1 mph - N/A   Scattered Clouds
7:00 PM 79 °F - 71 °F 69% 29.91 in 3 mi North 6.9 mph - -   Haze
7:00 PM 78.8 °F - 69.8 °F 74% 29.89 in 3.1 mi North 6.9 mph - N/A   Partly Cloudy
7:30 PM 78.8 °F - 69.8 °F 74% 29.92 in 3.1 mi North 6.9 mph - N/A   Haze
8:00 PM 78.8 °F - 69.8 °F 74% 29.92 in 3.1 mi North 5.8 mph - N/A   Haze
9:00 PM 78.8 °F - 71.6 °F 78% 29.95 in 3.1 mi NNW 3.5 mph - N/A   Haze
9:30 PM 77.0 °F - 71.6 °F 83% 29.95 in 3.1 mi NW 3.5 mph - N/A   Haze
10:00 PM 79 °F - 73 °F 78% 29.96 in 3 mi West 3.5 mph - -   Haze
10:00 PM 78.8 °F - 73.4 °F 83% 29.95 in 3.1 mi West 3.5 mph - N/A   Haze
10:30 PM 77.0 °F - 71.6 °F 83% 29.95 in 3.1 mi West 3.5 mph - N/A   Haze
11:00 PM 77.0 °F - 71.6 °F 83% 29.95 in 3.1 mi WSW 3.5 mph - N/A   Haze
11:30 PM 77.0 °F - 73.4 °F 89% 29.95 in 3.1 mi WSW 4.6 mph - N/A   Haze